| time (UTC) | temp F | wind direction | speed MPH | gust MPH | rain 1hr in | rain 24hr in | rain mn in | humidity % | barometer mb |
| 20260905093018 | 60 | 0.0 | 0.0 | 0.00 | 0.01 | 0.00 | 95 | 1012.9 | |
| 20260905090017 | 60 | 0.0 | 0.0 | 0.00 | 0.01 | 0.00 | 95 | 1012.9 | |
| 20260905083017 | 60 | 0.0 | 0.0 | 0.00 | 0.01 | 0.00 | 95 | 1012.9 | |
| 20260905080017 | 59 | 0.0 | 0.0 | 0.00 | 0.01 | 0.00 | 95 | 1013.1 | |
| 20260905073017 | 59 | 0.0 | 0.0 | 0.00 | 0.01 | 0.00 | 95 | 1013.2 | |
| 20260905070017 | 58 | 0.0 | 0.0 | 0.00 | 0.01 | 0.00 | 94 | 1013.3 | |
| 20260905063037 | 58 | 0.0 | 0.0 | 0.00 | 0.01 | 0.00 | 93 | 1013.5 | |
| 20260905060017 | 59 | 0.0 | 0.0 | 0.00 | 0.01 | 0.00 | 93 | 1013.4 | |
| 20260905053018 | 59 | 0.0 | 0.0 | 0.00 | 0.01 | 0.00 | 92 | 1013.6 | |
| 20260905050017 | 59 | 0.0 | 0.0 | 0.00 | 0.10 | 0.00 | 91 | 1013.9 | |
| 20260905043017 | 60 | 0.0 | 0.0 | 0.00 | 0.16 | 0.00 | 89 | 1014.0 | |
| 20260905040017 | 60 | 0.0 | 0.0 | 0.00 | 0.17 | 0.17 | 88 | 1014.1 | |
| 20260905033037 | 61 | 0.0 | 0.0 | 0.00 | 0.17 | 0.17 | 87 | 1014.1 | |
| 20260905030017 | 61 | 0.0 | 0.0 | 0.00 | 0.17 | 0.17 | 85 | 1013.6 | |
| 20260905023017 | 63 | 0.0 | 0.0 | 0.00 | 0.17 | 0.17 | 86 | 1013.8 | |
| 20260905020100 | 64 | 0.0 | 0.0 | 0.00 | 0.17 | 0.17 | 84 | 1014.1 | |
| 20260905013016 | 64 | 0.0 | 0.0 | 0.00 | 0.17 | 0.17 | 83 | 1013.9 | |
| 20260905010017 | 64 | 0.0 | 0.0 | 0.00 | 0.17 | 0.17 | 83 | 1013.8 | |
| 20260905003056 | 64 | 0.0 | 0.0 | 0.00 | 0.17 | 0.17 | 81 | 1013.8 | |
| 20260905000017 | 66 | 0.0 | 0.0 | 0.00 | 0.17 | 0.17 | 78 | 1013.5 | |
| 20260904233016 | 69 | 0.0 | 0.0 | 0.00 | 0.17 | 0.17 | 74 | 1013.6 | |
| 20260904230037 | 71 | 0.0 | 4.0 | 0.00 | 0.17 | 0.17 | 69 | 1013.5 | |
| 20260904223037 | 72 | 293 | 1.0 | 8.0 | 0.00 | 0.17 | 0.17 | 68 | 1013.7 |
| 20260904220016 | 72 | 270 | 2.0 | 13.0 | 0.00 | 0.17 | 0.17 | 67 | 1013.4 |
| 20260904213017 | 75 | 270 | 2.0 | 9.0 | 0.00 | 0.17 | 0.17 | 61 | 1013.5 |
| 20260904210016 | 74 | 270 | 3.0 | 13.0 | 0.00 | 0.17 | 0.17 | 62 | 1013.4 |
| 20260904203036 | 76 | 293 | 3.0 | 12.0 | 0.00 | 0.17 | 0.17 | 63 | 1013.8 |
| 20260904200016 | 76 | 293 | 4.0 | 12.0 | 0.00 | 0.17 | 0.17 | 62 | 1014.1 |
| 20260904193016 | 77 | 293 | 3.0 | 11.0 | 0.00 | 0.17 | 0.17 | 65 | 1014.0 |
| 20260904190016 | 75 | 270 | 3.0 | 11.0 | 0.00 | 0.17 | 0.17 | 67 | 1014.2 |
| 20260904183018 | 76 | 270 | 4.0 | 13.0 | 0.00 | 0.17 | 0.17 | 64 | 1014.4 |
| 20260904180016 | 74 | 293 | 2.0 | 10.0 | 0.00 | 0.17 | 0.17 | 72 | 1014.6 |
| 20260904173016 | 74 | 270 | 1.0 | 10.0 | 0.00 | 0.17 | 0.17 | 70 | 1014.8 |
| 20260904170017 | 74 | 293 | 1.0 | 9.0 | 0.00 | 0.17 | 0.17 | 68 | 1014.9 |
| 20260904163016 | 73 | 270 | 1.0 | 10.0 | 0.00 | 0.17 | 0.17 | 76 | 1014.9 |
| 20260904160016 | 73 | 0.0 | 9.0 | 0.00 | 0.17 | 0.17 | 76 | 1014.9 | |
| 20260904153016 | 71 | 0.0 | 5.0 | 0.00 | 0.17 | 0.17 | 77 | 1015.1 | |
| 20260904150016 | 70 | 0.0 | 3.0 | 0.00 | 0.17 | 0.17 | 83 | 1015.2 | |
| 20260904143016 | 68 | 270 | 1.0 | 10.0 | 0.00 | 0.17 | 0.17 | 87 | 1015.2 |
| 20260904140016 | 68 | 293 | 1.0 | 7.0 | 0.00 | 0.17 | 0.17 | 88 | 1015.1 |
| 20260904133016 | 66 | 0.0 | 7.0 | 0.00 | 0.17 | 0.17 | 93 | 1014.9 | |
| 20260904130036 | 66 | 0.0 | 4.0 | 0.00 | 0.17 | 0.17 | 97 | 1014.9 | |
| 20260904123016 | 65 | 0.0 | 3.0 | 0.00 | 0.17 | 0.17 | 97 | 1014.8 | |
| 20260904120016 | 65 | 0.0 | 0.0 | 0.00 | 0.17 | 0.17 | 97 | 1014.7 | |
| 20260904113015 | 65 | 0.0 | 0.0 | 0.00 | 0.17 | 0.17 | 97 | 1014.7 | |
| 20260904110015 | 65 | 0.0 | 0.0 | 0.01 | 0.17 | 0.17 | 97 | 1014.5 | |
| 20260904103016 | 66 | 0.0 | 0.0 | 0.01 | 0.17 | 0.17 | 97 | 1014.3 | |
| 20260904100015 | 66 | 0.0 | 0.0 | 0.00 | 0.16 | 0.16 | 97 | 1014.2 |